Погода в Острув-Мазовецка

Польша     52°48′33″N   21°52′43″E
темп.,
°C
ветер,
м/с
пор.,
м/с
влажн.,
%
обл.,
%
осадки,
мм/ч
давл.,
гПа
погр.,
м
25 февраля, чт
чт2501:00+3зюз239463 0.0 103024
04:00+3зюз339452 0.0 102927
07:00+3юз349564 0.0 102939
10:00+6юз359924 0.0 1029130
13:00+9юз359214 0.0 1028192
16:00+8ююз34910 0.0 102645
19:00+6ююз45890 0.0 102673
22:00+6зюз47870 0.0 1025103
26 февраля, пт
пт2601:00+5зюз47900 0.0 1025121
04:00+4з47950 0.0 1024132
07:00+5з4119716 0.0 1024276
10:00+7з598498 0.0 1024561
13:00+9з6116599 0.0 1024801
16:00+7з61169100 0.0 1023809
19:00+5з61478100 0.0 1023686
22:00+4зсз6148565 0.0 1022630
27 февраля, сб
сб2701:00+4зсз6118378 0.0 1023768
04:00+4з61386100 0.1 1022704
07:00+4зсз61284100 0.1 1023839
10:00+5сз71177100 0.0 10241034
13:00+7сз8115984 0.0 10251373
16:00+6сз712574 0.0 10261197
19:00+3сз613762 0.0 1028619
22:00+1ссз613860 0.0 1029476
28 февраля, вс
вс2801:000ссз511900 0.0 1031369
04:00−1сз49954 0.0 1031312
07:000сз479328 0.0 1031333
10:00+3ссз4673100 0.0 1031559
13:00+5ссз4561100 0.0 10311062
16:00+4сз3672100 0.0 1032337
19:00+2сз3685100 0.0 1033155
22:00+1ссз3796100 0.0 1035234
1 марта, пн
пн101:000ссз359665 0.0 1035116
04:00+2ссз369797 0.0 1036221
07:00+1ссз359596 0.0 1037160
10:00+3ссз3579100 0.0 1038345
13:00+7сз346488 0.0 1038806
16:00+7зсз246811 0.0 1037371
19:00+3зсз338319 0.0 103846
22:00+2зсз239084 0.0 103944